Location: *
(57.8420°S, 159.8600°W)
Time: 04:17:40
(UTC+00:00)

ATLAS CENTAUR R/B - Pass Details

Date: 18 May 2021
Orbit: 472 x 671 km, 64.6° (Epoch: 13 June)

Event Time Altitude Azimuth Distance (km) Brightness Sun altitude
Rises 05:36:04 0° 235° (SW) 2,882 5.9 -24.5°
Reaches altitude 10° 05:38:48 10° 250° (WSW) 1,932 5.0 -24.8°
Maximum altitude 05:42:05 21° 299° (WNW) 1,298 3.8 -25.3°
Drops below altitude 10° 05:45:12 10° 349° (NNW) 1,820 4.0 -25.7°
Enters shadow 05:45:14 10° 349° (N) 1,829 4.0 -25.7°
